FW7413 Weather Reports


time (UTC)temp
C
wind
direction
speed
KPH
gust
KPH
rain 1hr
cm
rain 24hr
cm
rain mn
cm
humidity
%
barometer
mb
20260510022526 25 137 8.0 14.5 0.00 0.00 0.00 44 1009.3
20260510022020 25 127 1.6 3.2 0.00 0.00 0.00 44 1009.1
20260510021516 25 149 3.2 8.0 0.00 0.00 0.00 43 1009.2
20260510021014 26 156 4.8 8.0 0.00 0.00 0.00 43 1009.2
20260510020509 26 153 1.6 3.2 0.00 0.00 0.00 43 1008.9
20260510020005 26 139 4.8 8.0 0.00 0.00 0.00 42 1008.5
20260510015500 26 118 4.8 9.7 0.00 0.00 0.00 42 1008.2
20260510014956 26 121 4.8 8.0 0.00 0.00 0.00 41 1007.7
20260510014454 26 151 1.6 4.8 0.00 0.00 0.00 41 1007.6
20260510013950 26 139 4.8 9.7 0.00 0.00 0.00 40 1007.5
20260510013445 26 134 0.0 3.2 0.00 0.00 0.00 39 1007.8
20260510012941 26 134 4.8 9.7 0.00 0.00 0.00 39 1007.6
20260510012436 26 180 1.6 1.6 0.00 0.00 0.00 39 1008.0
20260510011931 26 161 0.0 1.6 0.00 0.00 0.00 38 1008.0
20260510011425 26 162 3.2 8.0 0.00 0.00 0.00 37 1008.0
20260510010922 26 126 1.6 3.2 0.00 0.00 0.00 37 1008.0
20260510010420 26 143 3.2 4.8 0.00 0.00 0.00 37 1008.0
20260510005916 26 102 8.0 12.9 0.00 0.00 0.00 36 1008.1
20260510005412 26 132 1.6 1.6 0.00 0.00 0.00 38 1007.9
20260510004909 26 149 1.6 1.6 0.00 0.00 0.00 39 1008.2
20260510004407 26 111 1.6 3.2 0.00 0.00 0.00 38 1007.8
20260510003904 27 137 1.6 3.2 0.00 0.00 0.00 38 1008.1
20260510003401 27 124 0.0 1.6 0.00 0.00 0.00 38 1008.2
20260510002900 27 148 3.2 8.0 0.00 0.00 0.00 37 1008.1
20260510002358 27 112 4.8 8.0 0.00 0.00 0.00 36 1008.0
20260510001854 27 136 1.6 4.8 0.00 0.00 0.00 36 1007.8
20260510001352 27 137 1.6 3.2 0.00 0.00 0.00 36 1007.6
20260510000848 27 165 0.0 1.6 0.00 0.00 0.00 36 1007.9
20260510000348 27 143 3.2 4.8 0.00 0.00 0.00 34 1008.2
20260509235842 27 187 4.8 8.0 0.00 0.00 0.00 35 1008.1
20260509235338 27 156 0.0 1.6 0.00 0.00 0.00 35 1008.0
20260509234835 28 119 0.0 1.6 0.00 0.00 0.00 34 1007.9
20260509234332 28 133 0.0 1.6 0.00 0.00 0.00 34 1008.2
20260509233830 28 123 0.0 1.6 0.00 0.00 0.00 33 1008.1
20260509233327 28 119 3.2 4.8 0.00 0.00 0.00 33 1008.2
20260509232822 29 151 4.8 8.0 0.00 0.00 0.00 31 1008.0
20260509232321 29 143 1.6 3.2 0.00 0.00 0.00 31 1008.2
20260509231817 29 197 4.8 8.0 0.00 0.00 0.00 31 1008.1
20260509231313 29 145 1.6 3.2 0.00 0.00 0.00 31 1008.2
20260509230812 29 144 0.0 0.0 0.00 0.00 0.00 31 1008.6
20260509230308 30 158 1.6 4.8 0.00 0.00 0.00 31 1008.5
20260509225803 30 152 0.0 1.6 0.00 0.00 0.00 31 1008.2
20260509225300 30 146 1.6 3.2 0.00 0.00 0.00 31 1008.6
20260509224756 29 136 6.4 11.3 0.00 0.00 0.00 31 1008.2
20260509224253 29 147 3.2 3.2 0.00 0.00 0.00 30 1008.8
20260509223749 30 145 4.8 8.0 0.00 0.00 0.00 30 1008.6
20260509223246 30 155 0.0 1.6 0.00 0.00 0.00 31 1008.7
20260509222743 30 166 0.0 1.6 0.00 0.00 0.00 30 1009.0
20260509222239 30 108 0.0 0.0 0.00 0.00 0.00 30 1009.1
20260509221734 30 133 0.0 1.6 0.00 0.00 0.00 30 1008.9
20260509221231 30 111 3.2 4.8 0.00 0.00 0.00 30 1009.1
20260509220727 30 120 3.2 3.2 0.00 0.00 0.00 29 1009.0
20260509220224 30 110 0.0 1.6 0.00 0.00 0.00 32 1009.3
20260509215719 30 128 1.6 4.8 0.00 0.00 0.00 31 1009.1
20260509215216 30 122 6.4 11.3 0.00 0.00 0.00 30 1009.0
20260509214713 30 124 3.2 8.0 0.00 0.00 0.00 30 1009.1
20260509214210 30 69 1.6 1.6 0.00 0.00 0.00 31 1009.1
20260509213707 30 177 0.0 3.2 0.00 0.00 0.00 31 1009.3
20260509213202 30 160 1.6 4.8 0.00 0.00 0.00 31 1009.1
20260509212700 30 124 3.2 4.8 0.00 0.00 0.00 29 1009.2
20260509212157 30 160 3.2 3.2 0.00 0.00 0.00 31 1009.3
20260509211653 30 149 1.6 3.2 0.00 0.00 0.00 33 1009.3
20260509211149 30 150 4.8 8.0 0.00 0.00 0.00 30 1009.3
20260509210646 30 122 0.0 3.2 0.00 0.00 0.00 31 1009.4
20260509210143 30 146 0.0 1.6 0.00 0.00 0.00 33 1009.7
20260509205638 30 157 0.0 0.0 0.00 0.00 0.00 32 1009.7
20260509205133 30 130 1.6 3.2 0.00 0.00 0.00 32 1009.6
20260509204629 30 70 3.2 4.8 0.00 0.00 0.00 31 1009.8
20260509204126 30 103 4.8 4.8 0.00 0.00 0.00 31 1009.7
20260509203622 30 324 4.8 8.0 0.00 0.00 0.00 31 1009.8
20260509203120 30 81 4.8 8.0 0.00 0.00 0.00 32 1009.7
20260509202620 30 133 6.4 9.7 0.00 0.00 0.00 31 1009.7
20260509202115 30 160 1.6 3.2 0.00 0.00 0.00 33 1009.8
20260509201610 30 154 3.2 8.0 0.00 0.00 0.00 31 1009.7
20260509201108 30 153 0.0 1.6 0.00 0.00 0.00 33 1010.1
20260509200603 30 73 1.6 1.6 0.00 0.00 0.00 33 1009.9
20260509200059 30 77 4.8 4.8 0.00 0.00 0.00 34 1010.1
20260509195555 30 144 0.0 0.0 0.00 0.00 0.00 34 1010.2
20260509195050 29 133 0.0 1.6 0.00 0.00 0.00 35 1010.4
20260509194549 29 60 3.2 3.2 0.00 0.00 0.00 36 1010.0
20260509194048 29 38 1.6 3.2 0.00 0.00 0.00 34 1010.5
20260509193542 29 158 0.0 0.0 0.00 0.00 0.00 34 1010.5
20260509193039 29 87 3.2 4.8 0.00 0.00 0.00 36 1010.6
20260509192536 29 141 0.0 1.6 0.00 0.00 0.00 35 1010.5
20260509192030 29 100 1.6 1.6 0.00 0.00 0.00 33 1010.4
20260509191525 30 128 0.0 1.6 0.00 0.00 0.00 35 1010.6
20260509191021 29 130 3.2 4.8 0.00 0.00 0.00 35 1010.5
20260509190519 29 36 8.0 9.7 0.00 0.00 0.00 34 1010.5
20260509190017 28 169 0.0 1.6 0.00 0.00 0.00 39 1010.9
20260509185514 30 66 1.6 3.2 0.00 0.00 0.00 37 1011.0
20260509185010 29 176 1.6 1.6 0.00 0.00 0.00 32 1011.0
20260509184509 29 154 0.0 1.6 0.00 0.00 0.00 34 1010.9
20260509184004 30 108 4.8 9.7 0.00 0.00 0.00 38 1011.1
20260509183459 29 199 3.2 3.2 0.00 0.00 0.00 30 1011.3
20260509182955 28 165 3.2 4.8 0.00 0.00 0.00 32 1010.9
20260509182452 28 127 0.0 1.6 0.00 0.00 0.00 37 1011.0
20260509181949 29 148 4.8 9.7 0.00 0.00 0.00 36 1011.3
20260509181447 28 155 0.0 0.0 0.00 0.00 0.00 39 1011.3
20260509180944 28 113 0.0 1.6 0.00 0.00 0.00 39 1011.5
20260509180439 28 137 0.0 3.2 0.00 0.00 0.00 40 1011.5
20260509175936 28 177 3.2 3.2 0.00 0.00 0.00 40 1011.4
20260509175427 28 175 0.0 1.6 0.00 0.00 0.00 44 1011.7
20260509174923 27 192 3.2 4.8 0.00 0.00 0.00 42 1011.8
20260509174419 27 155 1.6 4.8 0.00 0.00 0.00 44 1012.0
20260509173916 27 165 1.6 3.2 0.00 0.00 0.00 44 1011.8
20260509173415 27 131 1.6 4.8 0.00 0.00 0.00 47 1011.9
20260509172912 27 182 3.2 4.8 0.00 0.00 0.00 46 1012.1
20260509172409 27 186 8.0 9.7 0.00 0.00 0.00 44 1012.3
20260509171905 27 203 3.2 4.8 0.00 0.00 0.00 46 1012.0
20260509171401 27 156 0.0 0.0 0.00 0.00 0.00 45 1012.2
20260509170857 27 177 4.8 8.0 0.00 0.00 0.00 44 1012.2
20260509170353 27 120 3.2 4.8 0.00 0.00 0.00 42 1012.4
20260509165848 27 130 0.0 0.0 0.00 0.00 0.00 42 1012.4
20260509165343 27 128 0.0 0.0 0.00 0.00 0.00 42 1012.5
20260509164839 27 121 0.0 1.6 0.00 0.00 0.00 42 1012.6
20260509164335 27 171 1.6 1.6 0.00 0.00 0.00 46 1012.5
20260509163831 27 137 3.2 4.8 0.00 0.00 0.00 44 1012.6
20260509163323 27 36 8.0 14.5 0.00 0.00 0.00 44 1012.4
20260509162822 27 34 4.8 4.8 0.00 0.00 0.00 45 1012.4
20260509162320 27 159 0.0 0.0 0.00 0.00 0.00 43 1012.6
20260509161817 26 121 0.0 1.6 0.00 0.00 0.00 44 1012.7
20260509161314 26 158 1.6 4.8 0.00 0.00 0.00 44 1012.7
20260509160809 26 122 1.6 1.6 0.00 0.00 0.00 49 1012.6
20260509160305 26 158 0.0 1.6 0.00 0.00 0.00 52 1012.6
20260509155800 26 150 1.6 1.6 0.00 0.00 0.00 52 1012.7
20260509155257 25 161 1.6 3.2 0.00 0.00 0.00 53 1012.5
20260509154753 25 117 3.2 4.8 0.00 0.00 0.00 51 1012.4
20260509154250 24 121 1.6 1.6 0.00 0.00 0.00 56 1012.5
20260509153747 24 130 0.0 1.6 0.00 0.00 0.00 59 1012.5
20260509153243 23 133 0.0 1.6 0.00 0.00 0.00 57 1012.6
20260509152740 24 130 1.6 3.2 0.00 0.00 0.00 57 1012.6
20260509152236 23 141 4.8 4.8 0.00 0.00 0.00 58 1012.5
20260509151733 23 145 1.6 3.2 0.00 0.00 0.00 63 1012.5
20260509151229 23 126 1.6 1.6 0.00 0.00 0.00 65 1012.5
20260509150727 23 121 0.0 0.0 0.00 0.00 0.00 66 1012.3
20260509150226 23 144 0.0 0.0 0.00 0.00 0.00 68 1012.6
20260509145722 23 124 1.6 1.6 0.00 0.00 0.00 70 1012.2
20260509145217 22 146 0.0 0.0 0.00 0.00 0.00 72 1012.2
20260509144714 22 121 1.6 3.2 0.00 0.00 0.00 75 1012.5
20260509144211 21 81 3.2 3.2 0.00 0.00 0.00 79 1012.2
20260509143708 21 148 0.0 1.6 0.00 0.00 0.00 83 1012.1
20260509143205 20 157 0.0 0.0 0.00 0.00 0.00 87 1012.1
20260509142700 20 129 0.0 0.0 0.00 0.00 0.00 90 1012.1
20260509142158 19 146 0.0 0.0 0.00 0.00 0.00 92 1012.3
20260509141653 19 144 0.0 0.0 0.00 0.00 0.00 92 1012.5
20260509141150 19 141 0.0 0.0 0.00 0.00 0.00 93 1012.3
20260509140647 19 147 0.0 0.0 0.00 0.00 0.00 93 1012.3
20260509140145 18 148 0.0 0.0 0.00 0.00 0.00 94 1012.2
20260509135642 18 142 0.0 0.0 0.00 0.00 0.00 94 1012.6
20260509135140 18 139 0.0 0.0 0.00 0.00 0.00 94 1012.5
20260509134636 18 133 0.0 0.0 0.00 0.00 0.00 94 1012.4
20260509134134 18 149 0.0 0.0 0.00 0.00 0.00 94 1012.3
20260509133631 17 153 0.0 0.0 0.00 0.00 0.00 94 1012.1
20260509133128 17 138 0.0 0.0 0.00 0.00 0.00 94 1012.1
20260509132626 17 140 0.0 0.0 0.00 0.00 0.00 94 1012.3
20260509132124 16 144 0.0 0.0 0.00 0.00 0.00 94 1012.2
20260509131620 16 148 0.0 0.0 0.00 0.00 0.00 94 1012.1
20260509131117 16 146 0.0 0.0 0.00 0.00 0.00 94 1011.9
20260509130613 16 147 0.0 0.0 0.00 0.00 0.00 94 1011.9
20260509130110 16 146 0.0 0.0 0.00 0.00 0.00 94 1011.7
20260509125606 16 148 0.0 0.0 0.00 0.00 0.00 94 1011.6
20260509125103 16 153 0.0 0.0 0.00 0.00 0.00 94 1011.8
20260509124559 16 164 0.0 0.0 0.00 0.00 0.00 94 1011.8
20260509124057 16 164 0.0 0.0 0.00 0.00 0.00 94 1011.7
20260509123554 15 164 0.0 0.0 0.00 0.00 0.00 94 1011.8
20260509123051 14 165 0.0 0.0 0.00 0.00 0.00 94 1011.6
20260509122547 13 165 0.0 0.0 0.00 0.00 0.00 94 1011.4
20260509122044 13 165 0.0 0.0 0.00 0.00 0.00 94 1011.5
20260509121540 13 165 0.0 0.0 0.00 0.00 0.00 94 1011.6
20260509121038 13 165 0.0 0.0 0.00 0.00 0.00 94 1011.6
20260509120536 12 165 0.0 0.0 0.00 0.00 0.00 94 1011.6
20260509120034 12 164 0.0 0.0 0.00 0.00 0.00 94 1011.4
20260509115531 12 164 0.0 0.0 0.00 0.00 0.00 94 1011.5
20260509115029 12 164 0.0 0.0 0.00 0.00 0.00 94 1011.1
20260509114527 11 164 0.0 0.0 0.00 0.00 0.00 94 1011.3
20260509114026 11 164 0.0 0.0 0.00 0.00 0.00 93 1011.6
20260509113523 11 164 0.0 0.0 0.00 0.00 0.00 93 1011.1
20260509113021 11 164 0.0 0.0 0.00 0.00 0.00 93 1011.0
20260509112517 11 164 0.0 0.0 0.00 0.00 0.00 93 1011.0
20260509112014 12 164 0.0 0.0 0.00 0.00 0.00 93 1011.1
20260509111511 12 164 0.0 0.0 0.00 0.00 0.00 93 1010.6
20260509111009 12 164 0.0 0.0 0.00 0.00 0.00 93 1010.8
20260509110505 12 164 0.0 0.0 0.00 0.00 0.00 93 1010.5
20260509110002 12 164 0.0 0.0 0.00 0.00 0.00 93 1010.6
20260509105501 12 164 0.0 0.0 0.00 0.00 0.00 93 1010.8
20260509104958 12 164 0.0 0.0 0.00 0.00 0.00 93 1010.9
20260509104454 12 164 0.0 0.0 0.00 0.00 0.00 93 1010.8
20260509103951 12 164 0.0 0.0 0.00 0.00 0.00 93 1010.7
20260509103449 12 164 0.0 0.0 0.00 0.00 0.00 93 1010.7
20260509102947 12 164 0.0 0.0 0.00 0.00 0.00 93 1010.7
20260509102444 12 164 0.0 0.0 0.00 0.00 0.00 93 1011.0
20260509101940 12 164 0.0 0.0 0.00 0.00 0.00 93 1010.8
20260509101436 13 164 0.0 0.0 0.00 0.00 0.00 93 1011.0
20260509100934 13 164 0.0 0.0 0.00 0.00 0.00 93 1011.0
20260509100431 13 164 0.0 0.0 0.00 0.00 0.00 93 1011.5
20260509095927 13 164 0.0 0.0 0.00 0.00 0.00 93 1011.4
20260509095425 13 164 0.0 0.0 0.00 0.00 0.00 93 1011.5
20260509094922 13 165 0.0 0.0 0.00 0.00 0.00 93 1011.1
20260509094418 13 164 0.0 0.0 0.00 0.00 0.00 93 1011.7
20260509093916 13 164 0.0 0.0 0.00 0.00 0.00 93 1011.5
20260509093413 13 164 0.0 0.0 0.00 0.00 0.00 93 1011.7
20260509092912 13 165 0.0 0.0 0.00 0.00 0.00 93 1011.6
20260509092409 13 163 0.0 0.0 0.00 0.00 0.00 93 1011.4
20260509091907 13 162 0.0 0.0 0.00 0.00 0.00 93 1011.5
20260509091404 13 163 0.0 0.0 0.00 0.00 0.00 93 1011.5
20260509090901 13 162 0.0 0.0 0.00 0.00 0.00 93 1011.4
20260509090358 13 165 0.0 0.0 0.00 0.00 0.00 93 1011.5
20260509085856 13 165 0.0 0.0 0.00 0.00 0.00 93 1011.3
20260509085353 13 165 0.0 0.0 0.00 0.00 0.00 93 1011.7
20260509084849 14 166 0.0 0.0 0.00 0.00 0.00 93 1011.5
20260509084346 14 165 0.0 0.0 0.00 0.00 0.00 93 1011.3
20260509083844 14 164 0.0 0.0 0.00 0.00 0.00 93 1011.4
20260509083340 13 157 0.0 0.0 0.00 0.00 0.00 93 1011.3
20260509082837 13 157 0.0 0.0 0.00 0.00 0.00 93 1011.5
20260509082333 13 157 0.0 0.0 0.00 0.00 0.00 93 1011.3
20260509081831 13 150 0.0 0.0 0.00 0.00 0.00 92 1011.4
20260509081328 13 150 0.0 0.0 0.00 0.00 0.00 92 1011.3
20260509080826 14 149 0.0 0.0 0.00 0.00 0.00 92 1011.3
20260509080323 14 149 0.0 0.0 0.00 0.00 0.00 92 1011.6
20260509075822 14 146 0.0 0.0 0.00 0.00 0.00 92 1011.5
20260509075318 14 143 0.0 0.0 0.00 0.00 0.00 92 1011.9
20260509074815 14 147 0.0 0.0 0.00 0.00 0.00 92 1011.7
20260509074313 14 159 0.0 0.0 0.00 0.00 0.00 92 1011.7
20260509073809 14 160 0.0 0.0 0.00 0.00 0.00 92 1011.7
20260509073306 14 160 0.0 0.0 0.00 0.00 0.00 92 1011.8
20260509072803 15 160 0.0 0.0 0.00 0.00 0.00 92 1011.8
20260509072259 15 160 0.0 0.0 0.00 0.00 0.00 92 1012.0
20260509071756 15 160 0.0 0.0 0.00 0.00 0.00 92 1011.8
20260509071253 15 159 0.0 0.0 0.00 0.00 0.00 92 1011.9
20260509070750 15 159 0.0 0.0 0.00 0.00 0.00 92 1012.1
20260509070246 15 157 0.0 0.0 0.00 0.00 0.00 91 1011.8
20260509065743 15 149 0.0 0.0 0.00 0.00 0.00 91 1012.0
20260509065239 15 158 0.0 0.0 0.00 0.00 0.00 91 1012.1
20260509064735 15 138 0.0 0.0 0.00 0.00 0.00 91 1011.8
20260509064233 15 153 0.0 0.0 0.00 0.00 0.00 91 1011.9
20260509063730 15 148 0.0 0.0 0.00 0.00 0.00 91 1011.9
20260509063226 15 129 0.0 0.0 0.00 0.00 0.00 91 1011.9
20260509062724 16 139 0.0 1.6 0.00 0.00 0.00 91 1012.0
20260509062221 15 144 0.0 0.0 0.00 0.00 0.00 91 1012.1
20260509061718 15 151 0.0 0.0 0.00 0.00 0.00 90 1012.3
20260509061216 15 155 0.0 0.0 0.00 0.00 0.00 90 1012.0
20260509060713 15 156 0.0 0.0 0.00 0.00 0.00 91 1012.1
20260509060209 15 155 0.0 0.0 0.00 0.00 0.00 91 1012.2
20260509055704 15 145 0.0 0.0 0.00 0.00 0.00 90 1012.1
20260509055201 15 145 0.0 0.0 0.00 0.00 0.00 90 1011.9
20260509054657 15 145 0.0 0.0 0.00 0.00 0.00 90 1011.9
20260509054155 15 145 0.0 0.0 0.00 0.00 0.00 89 1011.8
20260509053653 16 145 0.0 0.0 0.00 0.00 0.00 89 1012.0
20260509053150 16 145 0.0 0.0 0.00 0.00 0.00 89 1011.8
20260509052648 16 145 0.0 0.0 0.00 0.00 0.00 89 1011.9
20260509052145 16 145 0.0 0.0 0.00 0.00 0.00 89 1012.0
20260509051643 16 145 0.0 0.0 0.00 0.00 0.00 89 1012.0
20260509051140 16 145 0.0 0.0 0.00 0.00 0.00 89 1012.1
20260509050637 16 145 0.0 0.0 0.00 0.00 0.00 89 1011.8
20260509050133 16 145 0.0 0.0 0.00 0.00 0.00 89 1011.9
20260509045631 16 156 0.0 0.0 0.00 2.36 2.36 89 1011.9
20260509045128 16 149 0.0 0.0 0.00 2.36 2.36 89 1012.0
20260509044625 16 145 0.0 0.0 0.00 2.36 2.36 89 1011.9
20260509044122 17 94 0.0 0.0 0.00 2.36 2.36 90 1011.9
20260509043618 17 142 0.0 0.0 0.00 2.36 2.36 90 1011.8
20260509043114 17 143 0.0 0.0 0.00 2.36 2.36 90 1011.9
20260509042611 17 136 0.0 0.0 0.00 2.36 2.36 90 1012.0
20260509042106 17 126 0.0 0.0 0.00 2.36 2.36 90 1011.9
20260509041603 17 105 0.0 1.6 0.00 2.36 2.36 90 1011.7
20260509041101 17 136 0.0 0.0 0.00 2.36 2.36 90 1011.9
20260509040600 16 147 0.0 0.0 0.00 2.36 2.36 89 1011.7
20260509040056 16 136 0.0 0.0 0.00 2.36 2.36 89 1011.6
20260509035553 16 153 1.6 1.6 0.00 2.36 2.36 89 1011.1
20260509035049 16 146 0.0 0.0 0.00 2.36 2.36 89 1011.5
20260509034548 16 152 0.0 0.0 0.00 2.36 2.36 89 1011.1
20260509034044 16 151 0.0 0.0 0.00 2.36 2.36 88 1011.0
20260509033541 16 148 0.0 0.0 0.00 2.36 2.36 88 1011.0
20260509033039 16 151 0.0 1.6 0.00 2.36 2.36 87 1010.9
20260509032536 16 150 0.0 0.0 0.00 2.36 2.36 87 1010.8
20260509032032 17 150 0.0 0.0 0.00 2.36 2.36 87 1010.5
20260509031530 17 150 0.0 0.0 0.00 2.36 2.36 86 1010.7
20260509031027 17 132 0.0 1.6 0.00 2.36 2.36 85 1010.6
20260509030525 17 121 1.6 1.6 0.00 2.36 2.36 85 1010.2
20260509030022 17 90 0.0 1.6 0.00 2.36 2.36 84 1010.5
20260509025518 18 153 0.0 0.0 0.00 2.36 2.36 83 1010.3
20260509025013 18 148 0.0 0.0 0.00 2.36 2.36 82 1010.1
20260509024509 18 163 0.0 0.0 0.00 2.36 2.36 82 1009.8
20260509024006 18 169 0.0 1.6 0.00 2.36 2.36 82 1009.8
20260509023504 18 166 1.6 1.6 0.00 2.36 2.36 82 1009.7
20260509023000 18 165 1.6 1.6 0.00 2.36 2.36 83 1009.5